Regional Weather Roundup
Issued by NWS

Home | Current Version | Previous Version | Text Only | Print | Product List | Glossary On
Versions: 1 2 3 4 5 6 7 8 9 10 11 12 13 14 15 16 17 18 19 20 21 22 23 24 25 26 27 28 29 30 31 32 33 34 35 36 37 38 39 40 41 42 43 44 45 46 47 48 49 50
000
ASUS45 KBOU 272007
RWRCO

WEATHER ROUNDUP FOR COLORADO
NATIONAL WEATHER SERVICE DENVER/BOULDER CO
100 PM MST MON FEB 27 2017

NOTE: "FAIR" INDICATES FEW OR NO CLOUDS BELOW 12000 FEET WITH NO
SIGNIFICANT WEATHER AND/OR OBSTRUCTIONS TO VISIBILITY.

COZ001>005-013-030-031-272100-
...NORTHWEST COLORADO...

CITY           SKY/WX    TMP DP  RH WIND       PRES   REMARKS
CRAIG          CLOUDY    36  25  64 SW23G38   29.59F
HAYDEN         PTSUNNY   37  18  44 SW23G35   29.57F
MEEKER         PTSUNNY   40  27  59 SW20G29   29.61F
MOUNT WERNER   NOT AVBL
STEAMBOAT SPGS CLOUDY    36  17  45 SW22      29.58F
WALDEN         NOT AVBL
$$

COZ006>008-011-272100-
...WEST CENTRAL VALLEYS...

CITY           SKY/WX    TMP DP  RH WIND       PRES   REMARKS
GRAND JUNCTION FAIR      48  26  42 W16G25    29.68F
MONTROSE       FAIR      46  21  37 SW28G44   29.70F
EAGLE          CLOUDY    37  21  52 W16G23    29.67F
RIFLE          CLOUDY    43  25  49 W15G23    29.66F
DELTA          CLOUDY    50  22  33 SW21G31   29.72F
NUCLA          FAIR      45  19  36 S28G37    29.76F
$$

COZ017>023-064>068-272100-
...SOUTHWEST COLORADO...

CITY           SKY/WX    TMP DP  RH WIND       PRES   REMARKS
DURANGO        CLOUDY    39  19  44 SW15      29.86F
CORTEZ         PTSUNNY   44  20  38 SW20G28   29.83F
PAGOSA SPRINGS LGT SNOW  32  27  82 SW9       29.87F WCI  24
TELLURIDE      FAIR      31  12  45 S16G32    29.75F WCI  20
WOLF CREEK PAS CLOUDY    14  14 100 S33G51    29.77F WCI  -8
$$

COZ009-010-012-014-032>034-037-058>063-272100-
...CENTRAL COLORADO...

CITY           SKY/WX    TMP DP  RH WIND       PRES   REMARKS
ASPEN          CLOUDY    35  15  44 S12       29.63F WCI  27
BUENA VISTA    PTSUNNY   39   4  23 S7G17     29.65F
COPPER MTN     NOT AVBL
BERTHOUD PASS  CLOUDY    12   3  67 W16G29    29.60S WCI  -4
COTTONWOOD PAS FAIR      32   3  29 SE14G25   29.65F WCI  22
GUNNISON       FAIR      16   5  62 E9        29.75F WCI   4
KREMMLING      PTSUNNY   41  19  42 SW26G37   29.63S
LEADVILLE      CLOUDY    24   7  48 S20G30    29.63F WCI  10
MONARCH PASS   CLOUDY    16   7  67 SW25G38   29.77F WCI  -3
SALIDA         CLOUDY    43   8  23 S12G20    29.73F
SUNLIGHT       NOT AVBL
WILKERSON PASS FAIR      28   7  40 SW16G32   29.65F WCI  17
$$

COZ069>075-272100-
...SAN LUIS VALLEY/SANGRE DE CRISTO MOUNTAINS...

CITY           SKY/WX    TMP DP  RH WIND       PRES   REMARKS
ALAMOSA        FAIR      41  17  38 SW33G45   29.78F
LA VETA PASS   FLURRIES  28  18  64 S23G43    29.73F WCI  14
SAGUACHE       FAIR      43  10  26 W21G26    29.70F
$$

COZ035-036-038>040-272100-
...NORTHERN COLORADO FRONT RANGE...

CITY           SKY/WX    TMP DP  RH WIND       PRES   REMARKS
DENVER INTL AP FAIR      55   6  14 SW15G30   29.53F
DMNS CITY PARK   N/A     55   4  13 S17       29.51F
AURORA         MOSUNNY   54   5  13 SW17G25   29.53F
FRONT RANGE AP NOT AVBL
ERIE MUNI ARPT FAIR      49  15  24 N9        29.55F
BOULDER MUN AP FAIR      46  18  31 NE6       29.55F
CENTENNIAL     FAIR      53   6  15 W22G30    29.55F
BROOMFIELD     MOSUNNY   48  16  27 N7        29.55F
FORT COLLINS   FAIR      46  16  30 VRB6      29.56F
LONGMONT       NOT AVBL
$$

COZ041-046-047-076>085-087-088-272100-
...PIKES PEAK/PALMER DIVIDE AND SOUTHERN FOOTHILLS...

CITY           SKY/WX    TMP DP  RH WIND       PRES   REMARKS
COLO. SPRINGS  FAIR      53   4  13 SW32G43   29.61F
A. F. ACADEMY  FAIR      51   5  15 S14G24    29.58F
SCHRIEVER AFB  FAIR      51   6  15 SW24G39   29.63F
ELLICOTT       FAIR       1  32 100 SW28G37   29.60F WCI -24
FALCON         FAIR      49   3  15 SW24G41   29.62F
FORT CARSON    FAIR      52   6  15 SW32G41   29.61F
LIMON          FAIR      66   8  10 SW25G33   29.61F
MONUMENT HILL  FAIR      45   9  23 SW20G32   29.61F
TRINIDAD       FAIR      55   1  11 SW30G40   29.68F
$$

COZ042>045-048>051-090-091-272100-
...NORTHEAST COLORADO...

CITY           SKY/WX    TMP DP  RH WIND       PRES   REMARKS
GREELEY ARPT   FAIR      51  18  27 VRB5      29.56F
AKRON          FAIR      52   8  17 S9G21     29.59F
BURLINGTON     FAIR      57  11  16 SW22G29   29.64F
WRAY           NOT AVBL
STERLING       FAIR      52  21  30 S9        29.58F
HOLYOKE        FAIR      55  21  26 SE10G18   29.62F
FORT MORGAN    FAIR      55   7  14 SE14G22   29.58F
$$

COZ086-089-092>099-272100-
...SOUTHEAST COLORADO...

CITY           SKY/WX    TMP DP  RH WIND       PRES   REMARKS
PUEBLO         FAIR      60  12  15 SW24G37   29.62F
LA JUNTA       FAIR      63  11  13 SW17G24   29.64F
LAMAR          FAIR      62   9  12 SW13G26   29.63F
SPRINGFIELD      N/A     60  13  15 SW15G22   29.67F
$$



USA.gov is the U.S. government's official web portal to all federal, state and local government web resources and services.